TimeMST,TemperatureF,Dew PointF,Humidity,Sea Level PressureIn,VisibilityMPH,Wind Direction,Wind SpeedMPH,Gust SpeedMPH,PrecipitationIn,Events,Conditions,WindDirDegrees,DateUTC
12:56 AM,30.0,19.9,66,30.24,10.0,Calm,Calm,-,0.00,,Clear,0,2012-11-20 07:56:00
1:56 AM,27.0,19.0,72,30.25,10.0,Calm,Calm,-,0.00,,Clear,0,2012-11-20 08:56:00
2:56 AM,28.9,19.0,67,30.24,10.0,ENE,8.1,-,0.00,,Clear,60,2012-11-20 09:56:00
3:56 AM,32.0,19.0,59,30.24,10.0,ENE,5.8,-,0.00,,Clear,70,2012-11-20 10:56:00
4:56 AM,30.0,16.0,56,30.28,10.0,East,3.5,-,0.00,,Clear,90,2012-11-20 11:56:00
5:56 AM,25.0,14.0,63,30.32,10.0,Calm,Calm,-,0.00,,Clear,0,2012-11-20 12:56:00
6:56 AM,26.1,15.1,63,30.35,10.0,NNE,4.6,-,0.00,,Clear,30,2012-11-20 13:56:00
7:56 AM,39.0,19.9,46,30.32,-9999.0,Calm,Calm,-,0.00,,Clear,0,2012-11-20 14:56:00
8:56 AM,51.1,19.0,28,30.27,10.0,Calm,Calm,-,0.00,,Clear,0,2012-11-20 15:56:00
9:56 AM,57.0,14.0,18,30.26,10.0,South,6.9,-,0.00,Rain,Light Rain,170,2012-11-20 16:56:00
10:56 AM,57.9,10.9,16,30.25,10.0,South,6.9,-,0.00,Rain,Light Rain,170,2012-11-20 17:56:00
11:56 AM,57.9,12.0,16,30.23,10.0,South,4.6,-,N/A,,Clear,180,2012-11-20 18:56:00
12:56 PM,60.1,12.9,16,30.18,10.0,WSW,6.9,16.1,N/A,,Clear,240,2012-11-20 19:56:00
1:56 PM,61.0,12.9,15,30.17,10.0,Variable,5.8,-,N/A,,Clear,0,2012-11-20 20:56:00
2:56 PM,61.0,14.0,16,30.15,10.0,South,11.5,-,N/A,,Clear,190,2012-11-20 21:56:00
3:56 PM,59.0,14.0,17,30.14,10.0,South,11.5,-,N/A,,Clear,180,2012-11-20 22:56:00
4:56 PM,46.9,14.0,27,30.21,10.0,South,11.5,-,N/A,,Clear,170,2012-11-20 23:56:00
5:56 PM,46.9,15.1,28,30.25,10.0,SSE,11.5,-,N/A,,Clear,150,2012-11-21 00:56:00
6:56 PM,44.1,15.1,31,30.25,10.0,SSE,9.2,-,N/A,,Clear,150,2012-11-21 01:56:00
7:56 PM,45.0,15.1,30,30.17,10.0,SSE,12.7,-,N/A,,Clear,160,2012-11-21 02:56:00
8:56 PM,35.1,12.9,40,30.15,10.0,South,5.8,-,N/A,,Clear,170,2012-11-21 03:56:00
9:56 PM,36.0,12.9,39,30.10,10.0,Calm,Calm,-,0.00,Rain,Light Rain,0,2012-11-21 04:56:00
10:56 PM,33.1,12.9,43,30.10,10.0,NW,3.5,-,0.00,,Clear,320,2012-11-21 05:56:00
11:56 PM,35.1,12.0,39,30.07,10.0,NE,3.5,-,0.00,,Clear,50,2012-11-21 06:56:00